Location: Moscow
(55.7500°N, 37.5830°E)
Time: 20:17:50
(UTC+03:00)

Transit 2A Rocket - Pass Details

Date: 08 December 2021
Orbit: 584 x 917 km, 66.7° (Epoch: 23 January)

Event Time Altitude Azimuth Distance (km) Brightness Sun altitude
Rises 06:35:48 0° 182° (S) 3,366 8.5 -16.7°
Reaches altitude 10° 06:38:27 10° 172° (S) 2,482 7.9 -16.3°
Maximum altitude 06:43:25 30° 113° (ESE) 1,538 7.4 -15.7°
Drops below altitude 10° 06:48:36 10° 55° (NE) 2,609 8.2 -15.0°
Sets 06:51:26 0° 45° (NE) 3,566 8.8 -14.6°
